| time (UTC) | temp F | wind direction | speed MPH | gust MPH | rain 1hr in | rain 24hr in | rain mn in | humidity % | barometer mb |
| 20260903165748 | 0 | 0.0 | 0.0 | 0.00 | 0.00 | 0.00 | |||
| 20260903165457 | 54 | 106 | 4.0 | 6.0 | 0.00 | 0.00 | 0.02 | 86 | 1008.6 |
| 20260903165245 | 0 | 0.0 | 0.0 | 0.00 | 0.00 | 0.00 | |||
| 20260903164958 | 54 | 109 | 4.0 | 8.0 | 0.00 | 0.00 | 0.02 | 87 | 1008.6 |
| 20260903164744 | 0 | 0.0 | 0.0 | 0.00 | 0.00 | 0.00 | |||
| 20260903164458 | 54 | 116 | 3.0 | 5.0 | 0.00 | 0.00 | 0.02 | 86 | 1008.6 |
| 20260903164245 | 0 | 0.0 | 0.0 | 0.00 | 0.00 | 0.00 | |||
| 20260903163957 | 54 | 120 | 4.0 | 7.0 | 0.00 | 0.00 | 0.02 | 86 | 1008.5 |
| 20260903163744 | 0 | 0.0 | 0.0 | 0.00 | 0.00 | 0.00 | |||
| 20260903163459 | 54 | 113 | 4.0 | 7.0 | 0.00 | 0.00 | 0.02 | 86 | 1008.5 |
| 20260903162957 | 54 | 117 | 4.0 | 6.0 | 0.00 | 0.00 | 0.02 | 86 | 1008.4 |
| 20260903162742 | 0 | 0.0 | 0.0 | 0.00 | 0.00 | 0.00 | |||
| 20260903162458 | 54 | 106 | 6.0 | 8.0 | 0.00 | 0.00 | 0.02 | 85 | 1008.3 |
| 20260903162241 | 0 | 0.0 | 0.0 | 0.00 | 0.00 | 0.00 | |||
| 20260903161958 | 54 | 120 | 3.0 | 5.0 | 0.00 | 0.00 | 0.02 | 86 | 1008.3 |
| 20260903161742 | 0 | 0.0 | 0.0 | 0.00 | 0.00 | 0.00 | |||
| 20260903161457 | 54 | 117 | 4.0 | 6.0 | 0.00 | 0.00 | 0.02 | 85 | 1008.3 |
| 20260903161242 | 0 | 0.0 | 0.0 | 0.00 | 0.00 | 0.00 | |||
| 20260903160959 | 54 | 119 | 4.0 | 8.0 | 0.00 | 0.00 | 0.02 | 85 | 1008.3 |
| 20260903160742 | 0 | 0.0 | 0.0 | 0.00 | 0.00 | 0.00 | |||
| 20260903160457 | 54 | 103 | 5.0 | 6.0 | 0.00 | 0.00 | 0.02 | 86 | 1008.1 |
| 20260903160243 | 0 | 0.0 | 0.0 | 0.00 | 0.00 | 0.00 | |||
| 20260903155957 | 53 | 118 | 3.0 | 6.0 | 0.00 | 0.00 | 0.02 | 88 | 1008.1 |
| 20260903155742 | 0 | 0.0 | 0.0 | 0.00 | 0.00 | 0.00 | |||
| 20260903155458 | 53 | 117 | 3.0 | 5.0 | 0.00 | 0.00 | 0.02 | 88 | 1008.1 |
| 20260903155242 | 0 | 0.0 | 0.0 | 0.00 | 0.00 | 0.00 | |||
| 20260903154957 | 53 | 119 | 4.0 | 6.0 | 0.00 | 0.00 | 0.02 | 89 | 1008.1 |
| 20260903154737 | 0 | 0.0 | 0.0 | 0.00 | 0.00 | 0.00 | |||
| 20260903154458 | 53 | 124 | 4.0 | 7.0 | 0.00 | 0.00 | 0.02 | 89 | 1008.1 |
| 20260903154236 | 0 | 0.0 | 0.0 | 0.00 | 0.00 | 0.00 | |||
| 20260903153957 | 53 | 117 | 4.0 | 6.0 | 0.00 | 0.00 | 0.02 | 89 | 1008.1 |
| 20260903153742 | 0 | 0.0 | 0.0 | 0.00 | 0.00 | 0.00 | |||
| 20260903153458 | 53 | 121 | 5.0 | 8.0 | 0.00 | 0.00 | 0.02 | 89 | 1008.0 |
| 20260903153243 | 0 | 0.0 | 0.0 | 0.00 | 0.00 | 0.00 | |||
| 20260903152957 | 53 | 134 | 4.0 | 7.0 | 0.00 | 0.00 | 0.02 | 89 | 1007.9 |
| 20260903152736 | 0 | 0.0 | 0.0 | 0.00 | 0.00 | 0.00 | |||
| 20260903152458 | 53 | 114 | 6.0 | 9.0 | 0.00 | 0.00 | 0.02 | 89 | 1007.9 |
| 20260903152236 | 0 | 0.0 | 0.0 | 0.00 | 0.00 | 0.00 | |||
| 20260903151958 | 53 | 121 | 5.0 | 6.0 | 0.00 | 0.00 | 0.02 | 90 | 1007.8 |
| 20260903151736 | 0 | 0.0 | 0.0 | 0.00 | 0.00 | 0.00 | |||
| 20260903151504 | 52 | 114 | 6.0 | 7.0 | 0.00 | 0.00 | 0.02 | 90 | 1007.8 |
| 20260903151237 | 0 | 0.0 | 0.0 | 0.00 | 0.00 | 0.00 | |||
| 20260903150958 | 52 | 116 | 6.0 | 7.0 | 0.00 | 0.00 | 0.02 | 91 | 1007.8 |
| 20260903150736 | 0 | 0.0 | 0.0 | 0.00 | 0.00 | 0.00 | |||
| 20260903150458 | 52 | 117 | 6.0 | 8.0 | 0.00 | 0.00 | 0.02 | 91 | 1007.8 |
| 20260903150236 | 0 | 0.0 | 0.0 | 0.00 | 0.00 | 0.00 | |||
| 20260903145959 | 52 | 110 | 7.0 | 10.0 | 0.00 | 0.00 | 0.02 | 91 | 1007.8 |
| 20260903145737 | 0 | 0.0 | 0.0 | 0.00 | 0.00 | 0.00 | |||
| 20260903145458 | 52 | 108 | 7.0 | 11.0 | 0.01 | 0.00 | 0.02 | 92 | 1007.7 |
| 20260903145237 | 0 | 0.0 | 0.0 | 0.00 | 0.00 | 0.00 | |||
| 20260903144957 | 52 | 121 | 6.0 | 8.0 | 0.01 | 0.00 | 0.02 | 93 | 1007.6 |
| 20260903144736 | 0 | 0.0 | 0.0 | 0.00 | 0.00 | 0.00 | |||
| 20260903144459 | 52 | 127 | 7.0 | 9.0 | 0.01 | 0.00 | 0.02 | 93 | 1007.6 |
| 20260903144232 | 0 | 0.0 | 0.0 | 0.00 | 0.00 | 0.00 | |||
| 20260903143957 | 52 | 122 | 6.0 | 7.0 | 0.01 | 0.00 | 0.02 | 94 | 1007.5 |
| 20260903143731 | 0 | 0.0 | 0.0 | 0.00 | 0.00 | 0.00 | |||
| 20260903143459 | 51 | 113 | 7.0 | 9.0 | 0.01 | 0.00 | 0.02 | 95 | 1007.4 |
| 20260903143232 | 0 | 0.0 | 0.0 | 0.00 | 0.00 | 0.00 | |||
| 20260903142959 | 51 | 123 | 6.0 | 8.0 | 0.01 | 0.00 | 0.02 | 95 | 1007.4 |
| 20260903142732 | 0 | 0.0 | 0.0 | 0.00 | 0.00 | 0.00 | |||
| 20260903142458 | 51 | 121 | 7.0 | 9.0 | 0.02 | 0.00 | 0.02 | 95 | 1007.4 |
| 20260903142231 | 0 | 0.0 | 0.0 | 0.00 | 0.00 | 0.00 | |||
| 20260903141957 | 51 | 116 | 7.0 | 9.0 | 0.02 | 0.00 | 0.02 | 95 | 1007.3 |
| 20260903141732 | 0 | 0.0 | 0.0 | 0.00 | 0.00 | 0.00 | |||
| 20260903141458 | 51 | 125 | 6.0 | 8.0 | 0.02 | 0.00 | 0.02 | 95 | 1007.3 |
| 20260903141233 | 0 | 0.0 | 0.0 | 0.00 | 0.00 | 0.00 | |||
| 20260903140957 | 51 | 129 | 6.0 | 8.0 | 0.02 | 0.00 | 0.02 | 95 | 1007.2 |
| 20260903140729 | 0 | 0.0 | 0.0 | 0.00 | 0.00 | 0.00 | |||
| 20260903140458 | 51 | 122 | 6.0 | 8.0 | 0.02 | 0.00 | 0.02 | 95 | 1007.2 |
| 20260903140229 | 0 | 0.0 | 0.0 | 0.00 | 0.00 | 0.00 | |||
| 20260903140001 | 51 | 119 | 6.0 | 9.0 | 0.02 | 0.00 | 0.02 | 95 | 1007.2 |
| 20260903135729 | 0 | 0.0 | 0.0 | 0.00 | 0.00 | 0.00 | |||
| 20260903135500 | 51 | 122 | 6.0 | 9.0 | 0.01 | 0.00 | 0.02 | 95 | 1007.2 |
| 20260903135230 | 0 | 0.0 | 0.0 | 0.00 | 0.00 | 0.00 | |||
| 20260903134958 | 51 | 128 | 6.0 | 8.0 | 0.01 | 0.00 | 0.02 | 94 | 1007.3 |
| 20260903134458 | 51 | 122 | 7.0 | 9.0 | 0.01 | 0.00 | 0.01 | 94 | 1007.2 |
| 20260903134230 | 0 | 0.0 | 0.0 | 0.00 | 0.00 | 0.00 | |||
| 20260903133957 | 51 | 128 | 6.0 | 9.0 | 0.01 | 0.00 | 0.01 | 93 | 1007.1 |
| 20260903133729 | 0 | 0.0 | 0.0 | 0.00 | 0.00 | 0.00 | |||
| 20260903133458 | 51 | 124 | 7.0 | 8.0 | 0.00 | 0.00 | 0.01 | 93 | 1007.1 |
| 20260903133230 | 0 | 0.0 | 0.0 | 0.00 | 0.00 | 0.00 | |||
| 20260903132958 | 52 | 125 | 6.0 | 8.0 | 0.00 | 0.00 | 0.01 | 92 | 1007.0 |
| 20260903132458 | 52 | 126 | 6.0 | 8.0 | 0.00 | 0.00 | 0.00 | 90 | 1006.9 |
| 20260903132230 | 0 | 0.0 | 0.0 | 0.00 | 0.00 | 0.00 | |||
| 20260903131958 | 52 | 127 | 6.0 | 9.0 | 0.00 | 0.00 | 0.00 | 90 | 1006.9 |
| 20260903131730 | 0 | 0.0 | 0.0 | 0.00 | 0.00 | 0.00 | |||
| 20260903131457 | 53 | 122 | 6.0 | 8.0 | 0.00 | 0.00 | 0.00 | 88 | 1006.9 |
| 20260903131230 | 0 | 0.0 | 0.0 | 0.00 | 0.00 | 0.00 | |||
| 20260903130958 | 53 | 128 | 8.0 | 9.0 | 0.00 | 0.00 | 0.00 | 87 | 1006.8 |
| 20260903130728 | 0 | 0.0 | 0.0 | 0.00 | 0.00 | 0.00 | |||
| 20260903130458 | 53 | 129 | 7.0 | 10.0 | 0.00 | 0.00 | 0.00 | 85 | 1006.8 |
| 20260903130227 | 0 | 0.0 | 0.0 | 0.00 | 0.00 | 0.00 | |||
| 20260903125958 | 53 | 128 | 6.0 | 8.0 | 0.00 | 0.00 | 0.00 | 85 | 1006.6 |
| 20260903125724 | 0 | 0.0 | 0.0 | 0.00 | 0.00 | 0.00 | |||
| 20260903125457 | 53 | 126 | 6.0 | 9.0 | 0.00 | 0.00 | 0.00 | 84 | 1006.4 |
| 20260903125224 | 0 | 0.0 | 0.0 | 0.00 | 0.00 | 0.00 | |||
| 20260903124958 | 53 | 125 | 6.0 | 9.0 | 0.00 | 0.00 | 0.00 | 84 | 1006.5 |
| 20260903124725 | 0 | 0.0 | 0.0 | 0.00 | 0.00 | 0.00 | |||
| 20260903124457 | 53 | 124 | 6.0 | 8.0 | 0.00 | 0.00 | 0.00 | 83 | 1006.4 |
| 20260903124227 | 0 | 0.0 | 0.0 | 0.00 | 0.00 | 0.00 | |||
| 20260903123958 | 53 | 127 | 6.0 | 12.0 | 0.00 | 0.00 | 0.00 | 83 | 1006.4 |
| 20260903123725 | 0 | 0.0 | 0.0 | 0.00 | 0.00 | 0.00 | |||
| 20260903123457 | 54 | 128 | 6.0 | 9.0 | 0.00 | 0.00 | 0.00 | 83 | 1006.4 |
| 20260903123225 | 0 | 0.0 | 0.0 | 0.00 | 0.00 | 0.00 | |||
| 20260903122957 | 54 | 117 | 7.0 | 9.0 | 0.00 | 0.00 | 0.00 | 83 | 1006.4 |
| 20260903122725 | 0 | 0.0 | 0.0 | 0.00 | 0.00 | 0.00 | |||
| 20260903122458 | 54 | 117 | 6.0 | 8.0 | 0.00 | 0.00 | 0.00 | 83 | 1006.4 |
| 20260903122225 | 0 | 0.0 | 0.0 | 0.00 | 0.00 | 0.00 | |||
| 20260903121957 | 54 | 116 | 7.0 | 9.0 | 0.00 | 0.00 | 0.00 | 83 | 1006.4 |
| 20260903121725 | 0 | 0.0 | 0.0 | 0.00 | 0.00 | 0.00 | |||
| 20260903121458 | 54 | 120 | 6.0 | 9.0 | 0.00 | 0.00 | 0.00 | 83 | 1006.1 |
| 20260903121225 | 0 | 0.0 | 0.0 | 0.00 | 0.00 | 0.00 | |||
| 20260903120957 | 54 | 120 | 6.0 | 8.0 | 0.00 | 0.00 | 0.00 | 83 | 1006.2 |
| 20260903120457 | 54 | 118 | 7.0 | 9.0 | 0.00 | 0.00 | 0.00 | 83 | 1006.2 |
| 20260903120223 | 0 | 0.0 | 0.0 | 0.00 | 0.00 | 0.00 | |||
| 20260903115958 | 54 | 121 | 7.0 | 9.0 | 0.00 | 0.00 | 0.00 | 83 | 1006.2 |
| 20260903115722 | 0 | 0.0 | 0.0 | 0.00 | 0.00 | 0.00 | |||
| 20260903115458 | 54 | 117 | 6.0 | 9.0 | 0.00 | 0.00 | 0.00 | 83 | 1006.2 |
| 20260903115222 | 0 | 0.0 | 0.0 | 0.00 | 0.00 | 0.00 | |||
| 20260903114957 | 54 | 122 | 5.0 | 8.0 | 0.00 | 0.00 | 0.00 | 83 | 1006.2 |
| 20260903114722 | 0 | 0.0 | 0.0 | 0.00 | 0.00 | 0.00 | |||
| 20260903114457 | 54 | 125 | 7.0 | 11.0 | 0.00 | 0.00 | 0.00 | 82 | 1006.2 |
| 20260903114222 | 0 | 0.0 | 0.0 | 0.00 | 0.00 | 0.00 | |||
| 20260903113957 | 54 | 121 | 7.0 | 10.0 | 0.00 | 0.00 | 0.00 | 83 | 1006.2 |
| 20260903113723 | 0 | 0.0 | 0.0 | 0.00 | 0.00 | 0.00 | |||
| 20260903113458 | 54 | 128 | 6.0 | 8.0 | 0.00 | 0.00 | 0.00 | 82 | 1006.2 |
| 20260903113223 | 0 | 0.0 | 0.0 | 0.00 | 0.00 | 0.00 | |||
| 20260903112957 | 54 | 123 | 7.0 | 9.0 | 0.00 | 0.00 | 0.00 | 82 | 1006.2 |
| 20260903112723 | 0 | 0.0 | 0.0 | 0.00 | 0.00 | 0.00 | |||
| 20260903112457 | 54 | 120 | 7.0 | 9.0 | 0.00 | 0.00 | 0.00 | 82 | 1006.2 |
| 20260903112223 | 0 | 0.0 | 0.0 | 0.00 | 0.00 | 0.00 | |||
| 20260903112003 | 54 | 116 | 6.0 | 11.0 | 0.00 | 0.00 | 0.00 | 82 | 1005.6 |
| 20260903111723 | 0 | 0.0 | 0.0 | 0.00 | 0.00 | 0.00 | |||
| 20260903111458 | 54 | 120 | 7.0 | 9.0 | 0.00 | 0.00 | 0.00 | 82 | 1005.5 |
| 20260903110957 | 54 | 116 | 8.0 | 9.0 | 0.00 | 0.00 | 0.00 | 82 | 1005.4 |
| 20260903110457 | 54 | 121 | 7.0 | 11.0 | 0.00 | 0.00 | 0.00 | 82 | 1005.4 |
| 20260903105957 | 54 | 118 | 7.0 | 9.0 | 0.00 | 0.00 | 0.00 | 82 | 1005.4 |
| 20260903105720 | 0 | 0.0 | 0.0 | 0.00 | 0.00 | 0.00 | |||
| 20260903105458 | 54 | 116 | 7.0 | 9.0 | 0.00 | 0.00 | 0.00 | 82 | 1005.4 |
| 20260903105221 | 0 | 0.0 | 0.0 | 0.00 | 0.00 | 0.00 | |||
| 20260903104957 | 54 | 112 | 8.0 | 10.0 | 0.00 | 0.00 | 0.00 | 82 | 1005.5 |
| 20260903104720 | 0 | 0.0 | 0.0 | 0.00 | 0.00 | 0.00 | |||
| 20260903104457 | 54 | 113 | 7.0 | 9.0 | 0.00 | 0.00 | 0.00 | 82 | 1005.5 |
| 20260903104221 | 0 | 0.0 | 0.0 | 0.00 | 0.00 | 0.00 | |||
| 20260903103957 | 54 | 116 | 7.0 | 9.0 | 0.00 | 0.00 | 0.00 | 82 | 1005.5 |
| 20260903103458 | 54 | 113 | 7.0 | 9.0 | 0.00 | 0.00 | 0.00 | 82 | 1005.5 |
| 20260903103221 | 0 | 0.0 | 0.0 | 0.00 | 0.00 | 0.00 | |||
| 20260903102957 | 54 | 123 | 7.0 | 9.0 | 0.00 | 0.00 | 0.00 | 82 | 1005.4 |
| 20260903102721 | 0 | 0.0 | 0.0 | 0.00 | 0.00 | 0.00 | |||
| 20260903102457 | 54 | 126 | 7.0 | 9.0 | 0.00 | 0.00 | 0.00 | 82 | 1005.3 |
| 20260903102221 | 0 | 0.0 | 0.0 | 0.00 | 0.00 | 0.00 | |||
| 20260903101957 | 54 | 116 | 7.0 | 9.0 | 0.00 | 0.00 | 0.00 | 82 | 1005.2 |
| 20260903101721 | 0 | 0.0 | 0.0 | 0.00 | 0.00 | 0.00 | |||
| 20260903101500 | 54 | 120 | 7.0 | 9.0 | 0.00 | 0.00 | 0.00 | 82 | 1005.3 |
| 20260903101222 | 0 | 0.0 | 0.0 | 0.00 | 0.00 | 0.00 | |||
| 20260903100957 | 54 | 119 | 7.0 | 10.0 | 0.00 | 0.00 | 0.00 | 82 | 1005.4 |
| 20260903100718 | 0 | 0.0 | 0.0 | 0.00 | 0.00 | 0.00 | |||
| 20260903100459 | 54 | 115 | 9.0 | 11.0 | 0.00 | 0.00 | 0.00 | 82 | 1005.5 |
| 20260903100218 | 0 | 0.0 | 0.0 | 0.00 | 0.00 | 0.00 | |||
| 20260903095957 | 54 | 116 | 7.0 | 10.0 | 0.00 | 0.00 | 0.00 | 82 | 1005.4 |
| 20260903095719 | 0 | 0.0 | 0.0 | 0.00 | 0.00 | 0.00 | |||
| 20260903095457 | 54 | 116 | 8.0 | 11.0 | 0.00 | 0.00 | 0.00 | 82 | 1005.5 |
| 20260903094957 | 54 | 116 | 9.0 | 12.0 | 0.00 | 0.00 | 0.00 | 82 | 1005.4 |
| 20260903094724 | 0 | 0.0 | 0.0 | 0.00 | 0.00 | 0.00 | |||
| 20260903094457 | 54 | 117 | 7.0 | 12.0 | 0.00 | 0.00 | 0.00 | 82 | 1005.4 |
| 20260903094221 | 0 | 0.0 | 0.0 | 0.00 | 0.00 | 0.00 | |||
| 20260903093957 | 54 | 114 | 8.0 | 11.0 | 0.00 | 0.00 | 0.00 | 82 | 1005.4 |
| 20260903093719 | 0 | 0.0 | 0.0 | 0.00 | 0.00 | 0.00 | |||
| 20260903093457 | 54 | 113 | 9.0 | 12.0 | 0.00 | 0.00 | 0.00 | 82 | 1005.4 |
| 20260903093219 | 0 | 0.0 | 0.0 | 0.00 | 0.00 | 0.00 | |||
| 20260903093000 | 54 | 117 | 8.0 | 13.0 | 0.00 | 0.00 | 0.00 | 82 | 1005.2 |
| 20260903092719 | 0 | 0.0 | 0.0 | 0.00 | 0.00 | 0.00 | |||
| 20260903092457 | 54 | 106 | 10.0 | 15.0 | 0.00 | 0.00 | 0.00 | 83 | 1005.3 |
| 20260903092219 | 0 | 0.0 | 0.0 | 0.00 | 0.00 | 0.00 | |||
| 20260903091957 | 54 | 115 | 7.0 | 9.0 | 0.00 | 0.00 | 0.00 | 83 | 1005.3 |
| 20260903091719 | 0 | 0.0 | 0.0 | 0.00 | 0.00 | 0.00 | |||
| 20260903091457 | 54 | 110 | 8.0 | 9.0 | 0.00 | 0.00 | 0.00 | 83 | 1005.2 |
| 20260903091220 | 0 | 0.0 | 0.0 | 0.00 | 0.00 | 0.00 | |||
| 20260903090957 | 54 | 107 | 7.0 | 10.0 | 0.00 | 0.00 | 0.00 | 84 | 1005.2 |
| 20260903090719 | 0 | 0.0 | 0.0 | 0.00 | 0.00 | 0.00 | |||
| 20260903090457 | 54 | 114 | 7.0 | 9.0 | 0.00 | 0.00 | 0.00 | 84 | 1005.2 |
| 20260903090219 | 0 | 0.0 | 0.0 | 0.00 | 0.00 | 0.00 | |||
| 20260903085958 | 54 | 111 | 7.0 | 9.0 | 0.00 | 0.00 | 0.00 | 85 | 1005.2 |
| 20260903085717 | 0 | 0.0 | 0.0 | 0.00 | 0.00 | 0.00 | |||
| 20260903085457 | 54 | 113 | 7.0 | 9.0 | 0.00 | 0.00 | 0.00 | 84 | 1005.3 |
| 20260903085216 | 0 | 0.0 | 0.0 | 0.00 | 0.00 | 0.00 | |||
| 20260903084958 | 54 | 121 | 6.0 | 8.0 | 0.00 | 0.00 | 0.00 | 85 | 1005.3 |
| 20260903084716 | 0 | 0.0 | 0.0 | 0.00 | 0.00 | 0.00 | |||
| 20260903084457 | 54 | 116 | 7.0 | 9.0 | 0.00 | 0.00 | 0.00 | 85 | 1005.3 |
| 20260903084217 | 0 | 0.0 | 0.0 | 0.00 | 0.00 | 0.00 | |||
| 20260903083957 | 54 | 115 | 7.0 | 11.0 | 0.00 | 0.00 | 0.00 | 85 | 1005.3 |
| 20260903083716 | 0 | 0.0 | 0.0 | 0.00 | 0.00 | 0.00 | |||
| 20260903083457 | 54 | 117 | 6.0 | 8.0 | 0.00 | 0.00 | 0.00 | 85 | 1005.3 |
| 20260903083217 | 0 | 0.0 | 0.0 | 0.00 | 0.00 | 0.00 | |||
| 20260903082957 | 54 | 125 | 6.0 | 9.0 | 0.00 | 0.00 | 0.00 | 85 | 1005.4 |
| 20260903082717 | 0 | 0.0 | 0.0 | 0.00 | 0.00 | 0.00 | |||
| 20260903082457 | 54 | 117 | 5.0 | 8.0 | 0.00 | 0.00 | 0.00 | 85 | 1005.5 |
| 20260903082216 | 0 | 0.0 | 0.0 | 0.00 | 0.00 | 0.00 | |||
| 20260903081957 | 54 | 119 | 6.0 | 10.0 | 0.00 | 0.00 | 0.00 | 84 | 1005.5 |
| 20260903081716 | 0 | 0.0 | 0.0 | 0.00 | 0.00 | 0.00 | |||
| 20260903081457 | 54 | 112 | 6.0 | 9.0 | 0.00 | 0.00 | 0.00 | 84 | 1005.4 |
| 20260903081217 | 0 | 0.0 | 0.0 | 0.00 | 0.00 | 0.00 | |||
| 20260903080957 | 54 | 112 | 8.0 | 9.0 | 0.00 | 0.00 | 0.00 | 85 | 1005.4 |
| 20260903080717 | 0 | 0.0 | 0.0 | 0.00 | 0.00 | 0.00 | |||
| 20260903080459 | 54 | 114 | 6.0 | 9.0 | 0.00 | 0.00 | 0.00 | 85 | 1005.4 |
| 20260903075957 | 54 | 116 | 6.0 | 9.0 | 0.00 | 0.00 | 0.00 | 85 | 1005.4 |
| 20260903075715 | 0 | 0.0 | 0.0 | 0.00 | 0.00 | 0.00 | |||
| 20260903075458 | 54 | 113 | 5.0 | 8.0 | 0.00 | 0.00 | 0.00 | 85 | 1005.5 |
| 20260903075211 | 0 | 0.0 | 0.0 | 0.00 | 0.00 | 0.00 | |||
| 20260903074958 | 54 | 115 | 6.0 | 11.0 | 0.00 | 0.00 | 0.00 | 85 | 1005.5 |
| 20260903074711 | 0 | 0.0 | 0.0 | 0.00 | 0.00 | 0.00 | |||
| 20260903074458 | 54 | 113 | 7.0 | 9.0 | 0.00 | 0.00 | 0.00 | 85 | 1005.4 |
| 20260903073957 | 54 | 118 | 6.0 | 9.0 | 0.00 | 0.00 | 0.00 | 85 | 1005.4 |
| 20260903073711 | 0 | 0.0 | 0.0 | 0.00 | 0.00 | 0.00 | |||
| 20260903073457 | 54 | 108 | 8.0 | 10.0 | 0.00 | 0.00 | 0.00 | 86 | 1005.3 |
| 20260903072957 | 54 | 114 | 7.0 | 10.0 | 0.00 | 0.00 | 0.00 | 87 | 1005.4 |
| 20260903072712 | 0 | 0.0 | 0.0 | 0.00 | 0.00 | 0.00 | |||
| 20260903072457 | 54 | 114 | 6.0 | 9.0 | 0.00 | 0.00 | 0.00 | 87 | 1005.4 |
| 20260903072211 | 0 | 0.0 | 0.0 | 0.00 | 0.00 | 0.00 | |||
| 20260903071957 | 54 | 117 | 5.0 | 8.0 | 0.00 | 0.00 | 0.00 | 87 | 1005.4 |
| 20260903071712 | 0 | 0.0 | 0.0 | 0.00 | 0.00 | 0.00 | |||
| 20260903071459 | 54 | 121 | 6.0 | 9.0 | 0.00 | 0.00 | 0.00 | 86 | 1005.3 |
| 20260903070957 | 54 | 123 | 6.0 | 9.0 | 0.00 | 0.00 | 0.00 | 86 | 1005.3 |
| 20260903070712 | 0 | 0.0 | 0.0 | 0.00 | 0.00 | 0.00 | |||
| 20260903070458 | 54 | 113 | 6.0 | 8.0 | 0.00 | 0.00 | 0.00 | 86 | 1005.2 |
| 20260903070212 | 0 | 0.0 | 0.0 | 0.00 | 0.00 | 0.00 | |||
| 20260903065957 | 54 | 116 | 6.0 | 9.0 | 0.00 | 0.00 | 0.06 | 85 | 1005.2 |
| 20260903065709 | 0 | 0.0 | 0.0 | 0.00 | 0.00 | 0.00 | |||
| 20260903065458 | 54 | 102 | 7.0 | 10.0 | 0.00 | 0.00 | 0.06 | 85 | 1005.2 |
| 20260903065209 | 0 | 0.0 | 0.0 | 0.00 | 0.00 | 0.00 | |||
| 20260903064958 | 54 | 114 | 6.0 | 8.0 | 0.00 | 0.00 | 0.06 | 86 | 1005.3 |
| 20260903064709 | 0 | 0.0 | 0.0 | 0.00 | 0.00 | 0.00 | |||
| 20260903064457 | 54 | 115 | 6.0 | 7.0 | 0.00 | 0.00 | 0.06 | 86 | 1005.3 |
| 20260903064205 | 0 | 0.0 | 0.0 | 0.00 | 0.00 | 0.00 | |||
| 20260903063957 | 54 | 111 | 7.0 | 9.0 | 0.00 | 0.00 | 0.06 | 86 | 1005.2 |
| 20260903063704 | 0 | 0.0 | 0.0 | 0.00 | 0.00 | 0.00 | |||
| 20260903063457 | 54 | 109 | 7.0 | 9.0 | 0.00 | 0.00 | 0.06 | 86 | 1005.2 |
| 20260903063204 | 0 | 0.0 | 0.0 | 0.00 | 0.00 | 0.00 | |||
| 20260903062957 | 54 | 108 | 6.0 | 9.0 | 0.00 | 0.00 | 0.06 | 87 | 1005.3 |
| 20260903062704 | 0 | 0.0 | 0.0 | 0.00 | 0.00 | 0.00 | |||
| 20260903062457 | 54 | 112 | 6.0 | 9.0 | 0.00 | 0.00 | 0.06 | 87 | 1005.3 |
| 20260903062205 | 0 | 0.0 | 0.0 | 0.00 | 0.00 | 0.00 | |||
| 20260903061957 | 54 | 117 | 5.0 | 7.0 | 0.00 | 0.00 | 0.06 | 88 | 1005.4 |
| 20260903061458 | 54 | 120 | 5.0 | 7.0 | 0.00 | 0.00 | 0.06 | 89 | 1005.4 |
| 20260903061205 | 0 | 0.0 | 0.0 | 0.00 | 0.00 | 0.00 | |||
| 20260903060959 | 54 | 115 | 6.0 | 9.0 | 0.00 | 0.00 | 0.06 | 89 | 1005.3 |
| 20260903060704 | 0 | 0.0 | 0.0 | 0.00 | 0.00 | 0.00 | |||
| 20260903060458 | 54 | 117 | 6.0 | 8.0 | 0.00 | 0.00 | 0.06 | 89 | 1005.3 |
| 20260903060205 | 0 | 0.0 | 0.0 | 0.00 | 0.00 | 0.00 | |||
| 20260903055957 | 54 | 120 | 6.0 | 8.0 | 0.00 | 0.00 | 0.06 | 89 | 1005.3 |
| 20260903055705 | 0 | 0.0 | 0.0 | 0.00 | 0.00 | 0.00 | |||
| 20260903055458 | 54 | 108 | 6.0 | 9.0 | 0.00 | 0.00 | 0.06 | 89 | 1005.4 |
| 20260903055000 | 54 | 113 | 6.0 | 8.0 | 0.00 | 0.00 | 0.06 | 89 | 1005.4 |
| 20260903054702 | 0 | 0.0 | 0.0 | 0.00 | 0.00 | 0.00 | |||
| 20260903054458 | 54 | 113 | 6.0 | 8.0 | 0.00 | 0.00 | 0.06 | 89 | 1005.4 |
| 20260903053957 | 54 | 110 | 7.0 | 10.0 | 0.00 | 0.00 | 0.06 | 89 | 1005.4 |
| 20260903053659 | 0 | 0.0 | 0.0 | 0.00 | 0.00 | 0.00 | |||
| 20260903053457 | 54 | 120 | 7.0 | 9.0 | 0.00 | 0.00 | 0.06 | 90 | 1005.4 |
| 20260903053200 | 0 | 0.0 | 0.0 | 0.00 | 0.00 | 0.00 | |||
| 20260903052957 | 54 | 112 | 6.0 | 7.0 | 0.00 | 0.00 | 0.06 | 90 | 1005.4 |
| 20260903052700 | 0 | 0.0 | 0.0 | 0.00 | 0.00 | 0.00 | |||
| 20260903052501 | 53 | 114 | 6.0 | 8.0 | 0.00 | 0.00 | 0.06 | 90 | 1005.4 |
| 20260903052159 | 0 | 0.0 | 0.0 | 0.00 | 0.00 | 0.00 | |||
| 20260903051958 | 53 | 126 | 5.0 | 8.0 | 0.00 | 0.00 | 0.06 | 90 | 1005.3 |
| 20260903051700 | 0 | 0.0 | 0.0 | 0.00 | 0.00 | 0.00 | |||
| 20260903051458 | 53 | 114 | 6.0 | 8.0 | 0.00 | 0.00 | 0.06 | 91 | 1005.2 |
| 20260903051200 | 0 | 0.0 | 0.0 | 0.00 | 0.00 | 0.00 | |||
| 20260903050957 | 53 | 117 | 6.0 | 7.0 | 0.00 | 0.00 | 0.06 | 91 | 1005.2 |
| 20260903050701 | 0 | 0.0 | 0.0 | 0.00 | 0.00 | 0.00 | |||
| 20260903050457 | 53 | 122 | 6.0 | 7.0 | 0.00 | 0.00 | 0.06 | 91 | 1005.1 |
| 20260903050200 | 0 | 0.0 | 0.0 | 0.00 | 0.00 | 0.00 | |||
| 20260903045957 | 53 | 116 | 5.0 | 7.0 | 0.00 | 0.00 | 0.06 | 90 | 1005.0 |
| 20260903045700 | 0 | 0.0 | 0.0 | 0.00 | 0.00 | 0.00 | |||
| 20260903045458 | 53 | 115 | 7.0 | 10.0 | 0.00 | 0.00 | 0.06 | 91 | 1005.0 |
| 20260903045200 | 0 | 0.0 | 0.0 | 0.00 | 0.00 | 0.00 | |||
| 20260903044958 | 53 | 117 | 5.0 | 8.0 | 0.00 | 0.00 | 0.06 | 90 | 1005.1 |
| 20260903044657 | 0 | 0.0 | 0.0 | 0.00 | 0.00 | 0.00 | |||
| 20260903044458 | 53 | 121 | 6.0 | 7.0 | 0.00 | 0.00 | 0.06 | 90 | 1005.0 |
| 20260903044157 | 0 | 0.0 | 0.0 | 0.00 | 0.00 | 0.00 | |||
| 20260903043958 | 53 | 122 | 7.0 | 9.0 | 0.00 | 0.00 | 0.06 | 90 | 1005.0 |
| 20260903043658 | 0 | 0.0 | 0.0 | 0.00 | 0.00 | 0.00 | |||
| 20260903043458 | 53 | 123 | 6.0 | 8.0 | 0.00 | 0.00 | 0.06 | 90 | 1004.9 |
| 20260903043157 | 0 | 0.0 | 0.0 | 0.00 | 0.00 | 0.00 | |||
| 20260903042957 | 53 | 110 | 7.0 | 9.0 | 0.00 | 0.00 | 0.06 | 90 | 1004.8 |
| 20260903042658 | 0 | 0.0 | 0.0 | 0.00 | 0.00 | 0.00 | |||
| 20260903042458 | 53 | 104 | 7.0 | 9.0 | 0.00 | 0.00 | 0.06 | 90 | 1004.8 |
| 20260903042157 | 0 | 0.0 | 0.0 | 0.00 | 0.00 | 0.00 | |||
| 20260903041957 | 54 | 110 | 5.0 | 6.0 | 0.00 | 0.00 | 0.06 | 89 | 1004.9 |
| 20260903041658 | 0 | 0.0 | 0.0 | 0.00 | 0.00 | 0.00 | |||
| 20260903041458 | 54 | 111 | 6.0 | 7.0 | 0.00 | 0.00 | 0.06 | 89 | 1004.8 |
| 20260903041157 | 0 | 0.0 | 0.0 | 0.00 | 0.00 | 0.00 | |||
| 20260903040958 | 54 | 117 | 5.0 | 8.0 | 0.00 | 0.00 | 0.06 | 89 | 1004.7 |
| 20260903040457 | 54 | 112 | 6.0 | 8.0 | 0.00 | 0.00 | 0.06 | 88 | 1004.7 |
| 20260903040157 | 0 | 0.0 | 0.0 | 0.00 | 0.00 | 0.00 | |||
| 20260903035958 | 54 | 110 | 6.0 | 8.0 | 0.00 | 0.00 | 0.06 | 89 | 1004.6 |
| 20260903035658 | 0 | 0.0 | 0.0 | 0.00 | 0.00 | 0.00 | |||
| 20260903035457 | 54 | 111 | 6.0 | 9.0 | 0.00 | 0.00 | 0.06 | 89 | 1004.4 |
| 20260903035158 | 0 | 0.0 | 0.0 | 0.00 | 0.00 | 0.00 | |||
| 20260903034957 | 54 | 114 | 5.0 | 7.0 | 0.00 | 0.00 | 0.06 | 89 | 1004.3 |
| 20260903034700 | 0 | 0.0 | 0.0 | 0.00 | 0.00 | 0.00 | |||
| 20260903034458 | 54 | 120 | 4.0 | 6.0 | 0.00 | 0.00 | 0.06 | 89 | 1004.3 |
| 20260903034156 | 0 | 0.0 | 0.0 | 0.00 | 0.00 | 0.00 | |||
| 20260903033957 | 54 | 115 | 4.0 | 6.0 | 0.00 | 0.00 | 0.06 | 89 | 1004.2 |
| 20260903033656 | 0 | 0.0 | 0.0 | 0.00 | 0.00 | 0.00 | |||
| 20260903033457 | 54 | 116 | 5.0 | 7.0 | 0.00 | 0.00 | 0.06 | 88 | 1004.2 |
| 20260903033156 | 0 | 0.0 | 0.0 | 0.00 | 0.00 | 0.00 | |||
| 20260903033003 | 54 | 111 | 6.0 | 8.0 | 0.00 | 0.00 | 0.06 | 88 | 1004.1 |
| 20260903032655 | 0 | 0.0 | 0.0 | 0.00 | 0.00 | 0.00 | |||
| 20260903032457 | 55 | 120 | 6.0 | 8.0 | 0.00 | 0.00 | 0.06 | 88 | 1003.9 |
| 20260903032200 | 0 | 0.0 | 0.0 | 0.00 | 0.00 | 0.00 | |||
| 20260903031957 | 55 | 120 | 6.0 | 8.0 | 0.00 | 0.00 | 0.06 | 87 | 1004.0 |
| 20260903031656 | 0 | 0.0 | 0.0 | 0.00 | 0.00 | 0.00 | |||
| 20260903031457 | 55 | 118 | 5.0 | 7.0 | 0.00 | 0.00 | 0.06 | 87 | 1003.9 |
| 20260903030958 | 55 | 129 | 6.0 | 7.0 | 0.00 | 0.00 | 0.06 | 87 | 1003.7 |
| 20260903030656 | 0 | 0.0 | 0.0 | 0.00 | 0.00 | 0.00 | |||
| 20260903030457 | 55 | 123 | 5.0 | 8.0 | 0.00 | 0.00 | 0.06 | 87 | 1003.6 |
| 20260903025957 | 55 | 126 | 5.0 | 6.0 | 0.00 | 0.00 | 0.06 | 86 | 1003.4 |
| 20260903025459 | 55 | 125 | 8.0 | 11.0 | 0.00 | 0.00 | 0.06 | 86 | 1003.3 |
| 20260903025156 | 0 | 0.0 | 0.0 | 0.00 | 0.00 | 0.00 | |||
| 20260903024958 | 56 | 127 | 7.0 | 9.0 | 0.00 | 0.00 | 0.06 | 87 | 1003.1 |
| 20260903024653 | 0 | 0.0 | 0.0 | 0.00 | 0.00 | 0.00 | |||
| 20260903024457 | 56 | 132 | 6.0 | 7.0 | 0.00 | 0.00 | 0.06 | 87 | 1002.8 |
| 20260903024153 | 0 | 0.0 | 0.0 | 0.00 | 0.00 | 0.00 | |||
| 20260903023957 | 56 | 125 | 8.0 | 10.0 | 0.00 | 0.00 | 0.06 | 87 | 1002.5 |
| 20260903023653 | 0 | 0.0 | 0.0 | 0.00 | 0.00 | 0.00 | |||
| 20260903023458 | 56 | 122 | 7.0 | 9.0 | 0.00 | 0.00 | 0.06 | 87 | 1002.4 |
| 20260903023154 | 0 | 0.0 | 0.0 | 0.00 | 0.00 | 0.00 | |||
| 20260903022959 | 56 | 124 | 6.0 | 8.0 | 0.00 | 0.00 | 0.06 | 87 | 1002.3 |
| 20260903022653 | 0 | 0.0 | 0.0 | 0.00 | 0.00 | 0.00 | |||
| 20260903022457 | 56 | 129 | 7.0 | 10.0 | 0.00 | 0.00 | 0.06 | 87 | 1002.1 |
| 20260903022154 | 0 | 0.0 | 0.0 | 0.00 | 0.00 | 0.00 | |||
| 20260903021957 | 56 | 128 | 8.0 | 11.0 | 0.00 | 0.00 | 0.06 | 88 | 1002.0 |
| 20260903021653 | 0 | 0.0 | 0.0 | 0.00 | 0.00 | 0.00 | |||
| 20260903021457 | 56 | 117 | 9.0 | 12.0 | 0.00 | 0.00 | 0.06 | 87 | 1001.9 |
| 20260903021153 | 0 | 0.0 | 0.0 | 0.00 | 0.00 | 0.00 | |||
| 20260903020958 | 56 | 121 | 8.0 | 9.0 | 0.00 | 0.00 | 0.06 | 87 | 1001.8 |
| 20260903020654 | 0 | 0.0 | 0.0 | 0.00 | 0.00 | 0.00 | |||
| 20260903020457 | 56 | 115 | 9.0 | 11.0 | 0.00 | 0.00 | 0.06 | 87 | 1001.7 |
| 20260903020154 | 0 | 0.0 | 0.0 | 0.00 | 0.00 | 0.00 | |||
| 20260903015957 | 56 | 116 | 8.0 | 11.0 | 0.00 | 0.00 | 0.06 | 87 | 1001.5 |
| 20260903015652 | 0 | 0.0 | 0.0 | 0.00 | 0.00 | 0.00 | |||
| 20260903015457 | 56 | 125 | 8.0 | 10.0 | 0.00 | 0.00 | 0.06 | 87 | 1001.6 |
| 20260903015152 | 0 | 0.0 | 0.0 | 0.00 | 0.00 | 0.00 | |||
| 20260903014957 | 56 | 125 | 8.0 | 10.0 | 0.00 | 0.00 | 0.06 | 87 | 1001.4 |
| 20260903014652 | 0 | 0.0 | 0.0 | 0.00 | 0.00 | 0.00 | |||
| 20260903014457 | 56 | 122 | 8.0 | 11.0 | 0.00 | 0.00 | 0.06 | 87 | 1001.4 |
| 20260903014156 | 0 | 0.0 | 0.0 | 0.00 | 0.00 | 0.00 | |||
| 20260903013958 | 55 | 125 | 8.0 | 11.0 | 0.00 | 0.00 | 0.06 | 87 | 1001.1 |
| 20260903013650 | 0 | 0.0 | 0.0 | 0.00 | 0.00 | 0.00 | |||
| 20260903013457 | 56 | 120 | 8.0 | 12.0 | 0.01 | 0.00 | 0.06 | 87 | 1001.1 |
| 20260903012957 | 55 | 130 | 9.0 | 13.0 | 0.01 | 0.00 | 0.06 | 88 | 1000.8 |
| 20260903012650 | 0 | 0.0 | 0.0 | 0.00 | 0.00 | 0.00 | |||
| 20260903012458 | 55 | 120 | 9.0 | 13.0 | 0.04 | 0.00 | 0.06 | 87 | 1000.7 |
| 20260903012151 | 0 | 0.0 | 0.0 | 0.00 | 0.00 | 0.00 | |||
| 20260903011957 | 55 | 114 | 8.0 | 11.0 | 0.04 | 0.00 | 0.08 | 88 | 1000.9 |
| 20260903011650 | 0 | 0.0 | 0.0 | 0.00 | 0.00 | 0.00 | |||
| 20260903011457 | 55 | 116 | 8.0 | 10.0 | 0.04 | 0.00 | 0.08 | 89 | 1000.8 |
| 20260903011150 | 0 | 0.0 | 0.0 | 0.00 | 0.00 | 0.00 | |||
| 20260903010958 | 55 | 116 | 8.0 | 12.0 | 0.05 | 0.00 | 0.08 | 89 | 1000.9 |
| 20260903010651 | 0 | 0.0 | 0.0 | 0.00 | 0.00 | 0.00 | |||
| 20260903010457 | 55 | 124 | 9.0 | 15.0 | 0.06 | 0.00 | 0.07 | 89 | 1000.9 |
| 20260903010150 | 0 | 0.0 | 0.0 | 0.00 | 0.00 | 0.00 | |||
| 20260903005957 | 54 | 123 | 8.0 | 9.0 | 0.06 | 0.00 | 0.08 | 90 | 1000.9 |
| 20260903005653 | 0 | 0.0 | 0.0 | 0.00 | 0.00 | 0.00 | |||
| 20260903005457 | 54 | 113 | 10.0 | 13.0 | 0.05 | 0.00 | 0.08 | 90 | 1001.0 |
| 20260903005150 | 0 | 0.0 | 0.0 | 0.00 | 0.00 | 0.00 | |||
| 20260903004957 | 54 | 119 | 8.0 | 13.0 | 0.06 | 0.00 | 0.07 | 92 | 1001.1 |
| 20260903004650 | 0 | 0.0 | 0.0 | 0.00 | 0.00 | 0.00 | |||
| 20260903004457 | 54 | 115 | 9.0 | 11.0 | 0.06 | 0.00 | 0.07 | 93 | 1001.1 |
| 20260903004155 | 0 | 0.0 | 0.0 | 0.00 | 0.00 | 0.00 | |||
| 20260903003957 | 54 | 116 | 9.0 | 12.0 | 0.05 | 0.00 | 0.07 | 93 | 1001.4 |
| 20260903003650 | 0 | 0.0 | 0.0 | 0.00 | 0.00 | 0.00 | |||
| 20260903003457 | 53 | 120 | 9.0 | 12.0 | 0.05 | 0.00 | 0.06 | 94 | 1001.3 |
| 20260903003152 | 0 | 0.0 | 0.0 | 0.00 | 0.00 | 0.00 | |||
| 20260903002958 | 53 | 118 | 10.0 | 15.0 | 0.07 | 0.00 | 0.06 | 94 | 1001.3 |
| 20260903002650 | 0 | 0.0 | 0.0 | 0.00 | 0.00 | 0.00 | |||
| 20260903002457 | 53 | 119 | 9.0 | 11.0 | 0.07 | 0.00 | 0.05 | 94 | 1001.4 |
| 20260903002000 | 53 | 118 | 9.0 | 12.0 | 0.05 | 0.00 | 0.06 | 94 | 1001.5 |
| 20260903001650 | 0 | 0.0 | 0.0 | 0.00 | 0.00 | 0.00 | |||
| 20260903001457 | 54 | 120 | 9.0 | 12.0 | 0.05 | 0.00 | 0.05 | 93 | 1001.4 |
| 20260903001155 | 0 | 0.0 | 0.0 | 0.00 | 0.00 | 0.00 | |||
| 20260903000957 | 54 | 116 | 9.0 | 11.0 | 0.05 | 0.00 | 0.05 | 93 | 1001.4 |
| 20260903000457 | 54 | 116 | 11.0 | 15.0 | 0.03 | 0.00 | 0.03 | 92 | 1001.3 |
| 20260902235957 | 54 | 119 | 8.0 | 10.0 | 0.03 | 0.00 | 0.03 | 92 | 1001.4 |
| 20260902235655 | 0 | 0.0 | 0.0 | 0.00 | 0.00 | 0.00 | |||
| 20260902235458 | 54 | 116 | 9.0 | 11.0 | 0.02 | 0.00 | 0.03 | 92 | 1001.5 |
| 20260902235155 | 0 | 0.0 | 0.0 | 0.00 | 0.00 | 0.00 | |||
| 20260902234959 | 55 | 121 | 8.0 | 13.0 | 0.02 | 0.00 | 0.02 | 91 | 1001.4 |
| 20260902234647 | 0 | 0.0 | 0.0 | 0.00 | 0.00 | 0.00 | |||
| 20260902234457 | 55 | 126 | 9.0 | 11.0 | 0.01 | 0.00 | 0.02 | 89 | 1001.5 |
| 20260902234148 | 0 | 0.0 | 0.0 | 0.00 | 0.00 | 0.00 | |||
| 20260902233957 | 55 | 127 | 8.0 | 12.0 | 0.01 | 0.00 | 0.01 | 88 | 1001.7 |
| 20260902233647 | 0 | 0.0 | 0.0 | 0.00 | 0.00 | 0.00 | |||
| 20260902233457 | 56 | 121 | 8.0 | 9.0 | 0.01 | 0.00 | 0.01 | 86 | 1001.6 |
| 20260902232957 | 56 | 124 | 8.0 | 12.0 | 0.00 | 0.00 | 0.01 | 83 | 1001.8 |
| 20260902232701 | 0 | 0.0 | 0.0 | 0.00 | 0.00 | 0.00 | |||
| 20260902232457 | 57 | 128 | 6.0 | 9.0 | 0.00 | 0.00 | 0.00 | 82 | 1001.9 |
| 20260902232147 | 0 | 0.0 | 0.0 | 0.00 | 0.00 | 0.00 | |||
| 20260902231957 | 57 | 126 | 9.0 | 11.0 | 0.00 | 0.00 | 0.00 | 80 | 1001.8 |
| 20260902231647 | 0 | 0.0 | 0.0 | 0.00 | 0.00 | 0.00 | |||
| 20260902231457 | 58 | 129 | 7.0 | 13.0 | 0.00 | 0.00 | 0.00 | 79 | 1001.9 |
| 20260902231148 | 0 | 0.0 | 0.0 | 0.00 | 0.00 | 0.00 | |||
| 20260902231000 | 58 | 136 | 7.0 | 10.0 | 0.00 | 0.00 | 0.00 | 77 | 1001.8 |
| 20260902230648 | 0 | 0.0 | 0.0 | 0.00 | 0.00 | 0.00 | |||
| 20260902230457 | 59 | 128 | 9.0 | 12.0 | 0.00 | 0.00 | 0.00 | 75 | 1001.5 |
| 20260902230147 | 0 | 0.0 | 0.0 | 0.00 | 0.00 | 0.00 | |||
| 20260902225957 | 59 | 141 | 8.0 | 12.0 | 0.00 | 0.00 | 0.00 | 74 | 1001.8 |
| 20260902225648 | 0 | 0.0 | 0.0 | 0.00 | 0.00 | 0.00 | |||
| 20260902225457 | 60 | 126 | 11.0 | 18.0 | 0.00 | 0.00 | 0.00 | 72 | 1001.5 |
| 20260902225148 | 0 | 0.0 | 0.0 | 0.00 | 0.00 | 0.00 | |||
| 20260902224957 | 60 | 146 | 9.0 | 13.0 | 0.00 | 0.00 | 0.00 | 72 | 1001.4 |
| 20260902224650 | 0 | 0.0 | 0.0 | 0.00 | 0.00 | 0.00 | |||
| 20260902224459 | 60 | 136 | 7.0 | 12.0 | 0.00 | 0.00 | 0.00 | 72 | 1001.3 |
| 20260902224148 | 0 | 0.0 | 0.0 | 0.00 | 0.00 | 0.00 | |||
| 20260902223957 | 60 | 127 | 6.0 | 9.0 | 0.00 | 0.00 | 0.00 | 72 | 1001.5 |
| 20260902223645 | 0 | 0.0 | 0.0 | 0.00 | 0.00 | 0.00 | |||
| 20260902223457 | 60 | 118 | 8.0 | 13.0 | 0.00 | 0.00 | 0.00 | 71 | 1001.6 |
| 20260902223145 | 0 | 0.0 | 0.0 | 0.00 | 0.00 | 0.00 | |||
| 20260902222958 | 61 | 131 | 9.0 | 12.0 | 0.00 | 0.00 | 0.00 | 70 | 1001.8 |
| 20260902222645 | 0 | 0.0 | 0.0 | 0.00 | 0.00 | 0.00 | |||
| 20260902222457 | 61 | 131 | 8.0 | 11.0 | 0.00 | 0.00 | 0.00 | 70 | 1001.7 |
| 20260902222145 | 0 | 0.0 | 0.0 | 0.00 | 0.00 | 0.00 | |||
| 20260902221957 | 61 | 138 | 9.0 | 13.0 | 0.00 | 0.00 | 0.00 | 69 | 1001.9 |
| 20260902221646 | 0 | 0.0 | 0.0 | 0.00 | 0.00 | 0.00 | |||
| 20260902221457 | 61 | 123 | 6.0 | 9.0 | 0.00 | 0.00 | 0.00 | 69 | 1001.8 |
| 20260902221145 | 0 | 0.0 | 0.0 | 0.00 | 0.00 | 0.00 | |||
| 20260902220958 | 61 | 120 | 6.0 | 9.0 | 0.00 | 0.00 | 0.00 | 69 | 1001.9 |
| 20260902220646 | 0 | 0.0 | 0.0 | 0.00 | 0.00 | 0.00 | |||
| 20260902220458 | 61 | 116 | 7.0 | 9.0 | 0.00 | 0.00 | 0.00 | 69 | 1001.8 |
| 20260902215957 | 61 | 128 | 7.0 | 11.0 | 0.00 | 0.00 | 0.00 | 69 | 1001.7 |
| 20260902215645 | 0 | 0.0 | 0.0 | 0.00 | 0.00 | 0.00 | |||
| 20260902215457 | 61 | 116 | 7.0 | 9.0 | 0.00 | 0.00 | 0.00 | 68 | 1001.8 |
| 20260902215146 | 0 | 0.0 | 0.0 | 0.00 | 0.00 | 0.00 | |||
| 20260902214956 | 61 | 124 | 8.0 | 11.0 | 0.00 | 0.00 | 0.00 | 68 | 1001.9 |
| 20260902214644 | 0 | 0.0 | 0.0 | 0.00 | 0.00 | 0.00 | |||
| 20260902214458 | 61 | 117 | 6.0 | 9.0 | 0.00 | 0.00 | 0.00 | 68 | 1002.0 |
| 20260902214143 | 0 | 0.0 | 0.0 | 0.00 | 0.00 | 0.00 | |||
| 20260902213957 | 61 | 124 | 6.0 | 9.0 | 0.00 | 0.00 | 0.00 | 68 | 1002.1 |
| 20260902213643 | 0 | 0.0 | 0.0 | 0.00 | 0.00 | 0.00 | |||
| 20260902213457 | 61 | 116 | 6.0 | 9.0 | 0.00 | 0.00 | 0.00 | 68 | 1002.2 |
| 20260902213144 | 0 | 0.0 | 0.0 | 0.00 | 0.00 | 0.00 | |||
| 20260902212958 | 62 | 129 | 8.0 | 12.0 | 0.00 | 0.00 | 0.00 | 67 | 1002.2 |
| 20260902212643 | 0 | 0.0 | 0.0 | 0.00 | 0.00 | 0.00 | |||
| 20260902212457 | 62 | 135 | 8.0 | 11.0 | 0.00 | 0.00 | 0.00 | 67 | 1002.1 |
| 20260902212143 | 0 | 0.0 | 0.0 | 0.00 | 0.00 | 0.00 | |||
| 20260902211957 | 62 | 126 | 8.0 | 12.0 | 0.00 | 0.00 | 0.00 | 64 | 1002.1 |
| 20260902211644 | 0 | 0.0 | 0.0 | 0.00 | 0.00 | 0.00 | |||
| 20260902211457 | 63 | 117 | 9.0 | 18.0 | 0.00 | 0.00 | 0.00 | 63 | 1002.1 |
| 20260902210957 | 63 | 120 | 8.0 | 10.0 | 0.00 | 0.00 | 0.00 | 63 | 1002.0 |
| 20260902210643 | 0 | 0.0 | 0.0 | 0.00 | 0.00 | 0.00 | |||
| 20260902210457 | 63 | 110 | 8.0 | 10.0 | 0.00 | 0.00 | 0.00 | 63 | 1002.0 |
| 20260902210144 | 0 | 0.0 | 0.0 | 0.00 | 0.00 | 0.00 | |||
| 20260902205957 | 63 | 119 | 7.0 | 9.0 | 0.00 | 0.00 | 0.00 | 63 | 1002.1 |
| 20260902205457 | 63 | 116 | 7.0 | 11.0 | 0.00 | 0.00 | 0.00 | 63 | 1002.1 |
| 20260902205144 | 0 | 0.0 | 0.0 | 0.00 | 0.00 | 0.00 | |||
| 20260902204958 | 63 | 120 | 8.0 | 13.0 | 0.00 | 0.00 | 0.00 | 63 | 1002.2 |
| 20260902204644 | 0 | 0.0 | 0.0 | 0.00 | 0.00 | 0.00 | |||
| 20260902204457 | 63 | 124 | 9.0 | 15.0 | 0.00 | 0.00 | 0.00 | 62 | 1002.2 |
| 20260902204144 | 0 | 0.0 | 0.0 | 0.00 | 0.00 | 0.00 | |||
| 20260902203641 | 0 | 0.0 | 0.0 | 0.00 | 0.00 | 0.00 | |||
| 20260902203457 | 63 | 132 | 5.0 | 9.0 | 0.00 | 0.00 | 0.00 | 63 | 1002.2 |
| 20260902203141 | 0 | 0.0 | 0.0 | 0.00 | 0.00 | 0.00 | |||
| 20260902202957 | 63 | 124 | 8.0 | 15.0 | 0.00 | 0.00 | 0.00 | 62 | 1002.1 |
| 20260902202641 | 0 | 0.0 | 0.0 | 0.00 | 0.00 | 0.00 | |||
| 20260902202457 | 63 | 119 | 9.0 | 14.0 | 0.00 | 0.00 | 0.00 | 62 | 1002.2 |
| 20260902202142 | 0 | 0.0 | 0.0 | 0.00 | 0.00 | 0.00 | |||
| 20260902201959 | 64 | 119 | 7.0 | 11.0 | 0.00 | 0.00 | 0.00 | 62 | 1002.1 |
| 20260902201642 | 0 | 0.0 | 0.0 | 0.00 | 0.00 | 0.00 | |||
| 20260902201459 | 64 | 130 | 6.0 | 8.0 | 0.00 | 0.00 | 0.00 | 62 | 1002.3 |
| 20260902201142 | 0 | 0.0 | 0.0 | 0.00 | 0.00 | 0.00 | |||
| 20260902200957 | 64 | 132 | 7.0 | 9.0 | 0.00 | 0.00 | 0.00 | 62 | 1002.2 |
| 20260902200641 | 0 | 0.0 | 0.0 | 0.00 | 0.00 | 0.00 | |||
| 20260902200458 | 64 | 139 | 6.0 | 9.0 | 0.00 | 0.00 | 0.00 | 62 | 1002.2 |
| 20260902200142 | 0 | 0.0 | 0.0 | 0.00 | 0.00 | 0.00 | |||
| 20260902200000 | 64 | 132 | 8.0 | 13.0 | 0.00 | 0.00 | 0.00 | 62 | 1001.9 |
| 20260902195641 | 0 | 0.0 | 0.0 | 0.00 | 0.00 | 0.00 | |||
| 20260902195457 | 64 | 121 | 7.0 | 13.0 | 0.00 | 0.00 | 0.00 | 63 | 1002.1 |
| 20260902195142 | 0 | 0.0 | 0.0 | 0.00 | 0.00 | 0.00 | |||
| 20260902194957 | 64 | 124 | 6.0 | 9.0 | 0.00 | 0.00 | 0.00 | 63 | 1002.3 |
| 20260902194642 | 0 | 0.0 | 0.0 | 0.00 | 0.00 | 0.00 | |||
| 20260902194457 | 64 | 117 | 7.0 | 10.0 | 0.00 | 0.00 | 0.00 | 62 | 1002.3 |
| 20260902194139 | 0 | 0.0 | 0.0 | 0.00 | 0.00 | 0.00 | |||
| 20260902193958 | 64 | 126 | 7.0 | 10.0 | 0.00 | 0.00 | 0.00 | 62 | 1002.3 |
| 20260902193458 | 64 | 121 | 6.0 | 9.0 | 0.00 | 0.00 | 0.00 | 63 | 1002.4 |
| 20260902192957 | 64 | 131 | 7.0 | 9.0 | 0.00 | 0.00 | 0.00 | 63 | 1002.5 |
| 20260902192457 | 64 | 129 | 7.0 | 10.0 | 0.00 | 0.00 | 0.00 | 62 | 1002.4 |
| 20260902191958 | 64 | 128 | 8.0 | 15.0 | 0.00 | 0.00 | 0.00 | 62 | 1002.3 |
| 20260902191458 | 64 | 137 | 7.0 | 12.0 | 0.00 | 0.00 | 0.00 | 62 | 1002.4 |
| 20260902191139 | 0 | 0.0 | 0.0 | 0.00 | 0.00 | 0.00 | |||
| 20260902190958 | 63 | 130 | 7.0 | 12.0 | 0.00 | 0.00 | 0.00 | 64 | 1002.7 |
| 20260902190640 | 0 | 0.0 | 0.0 | 0.00 | 0.00 | 0.00 | |||
| 20260902190457 | 63 | 122 | 8.0 | 12.0 | 0.00 | 0.00 | 0.00 | 64 | 1002.8 |
| 20260902190139 | 0 | 0.0 | 0.0 | 0.00 | 0.00 | 0.00 | |||
| 20260902185959 | 62 | 136 | 7.0 | 12.0 | 0.00 | 0.00 | 0.00 | 65 | 1002.6 |
| 20260902185637 | 0 | 0.0 | 0.0 | 0.00 | 0.00 | 0.00 | |||
| 20260902185457 | 62 | 118 | 9.0 | 11.0 | 0.00 | 0.00 | 0.00 | 67 | 1002.8 |
| 20260902185137 | 0 | 0.0 | 0.0 | 0.00 | 0.00 | 0.00 | |||
| 20260902184957 | 61 | 112 | 7.0 | 9.0 | 0.00 | 0.00 | 0.00 | 68 | 1003.0 |
| 20260902184637 | 0 | 0.0 | 0.0 | 0.00 | 0.00 | 0.00 | |||
| 20260902184458 | 61 | 131 | 7.0 | 13.0 | 0.00 | 0.00 | 0.00 | 69 | 1002.8 |
| 20260902183957 | 61 | 126 | 8.0 | 12.0 | 0.00 | 0.00 | 0.00 | 70 | 1003.2 |
| 20260902183638 | 0 | 0.0 | 0.0 | 0.00 | 0.00 | 0.00 | |||
| 20260902183457 | 61 | 122 | 7.0 | 10.0 | 0.00 | 0.00 | 0.00 | 69 | 1003.3 |
| 20260902182958 | 61 | 129 | 8.0 | 11.0 | 0.00 | 0.00 | 0.00 | 69 | 1003.3 |
| 20260902182638 | 0 | 0.0 | 0.0 | 0.00 | 0.00 | 0.00 | |||
| 20260902182457 | 61 | 133 | 6.0 | 9.0 | 0.00 | 0.00 | 0.00 | 70 | 1003.2 |
| 20260902182137 | 0 | 0.0 | 0.0 | 0.00 | 0.00 | 0.00 | |||
| 20260902181957 | 61 | 126 | 8.0 | 13.0 | 0.00 | 0.00 | 0.00 | 70 | 1003.3 |
| 20260902181638 | 0 | 0.0 | 0.0 | 0.00 | 0.00 | 0.00 | |||
| 20260902181457 | 61 | 135 | 6.0 | 9.0 | 0.00 | 0.00 | 0.00 | 70 | 1003.5 |
| 20260902181137 | 0 | 0.0 | 0.0 | 0.00 | 0.00 | 0.00 | |||
| 20260902180957 | 62 | 132 | 6.0 | 10.0 | 0.00 | 0.00 | 0.00 | 71 | 1003.5 |
| 20260902180459 | 62 | 118 | 8.0 | 12.0 | 0.00 | 0.00 | 0.00 | 69 | 1003.5 |
| 20260902180139 | 0 | 0.0 | 0.0 | 0.00 | 0.00 | 0.00 | |||
| 20260902175957 | 62 | 142 | 6.0 | 11.0 | 0.00 | 0.00 | 0.00 | 70 | 1003.6 |
| 20260902175638 | 0 | 0.0 | 0.0 | 0.00 | 0.00 | 0.00 | |||
| 20260902175458 | 62 | 127 | 5.0 | 9.0 | 0.00 | 0.00 | 0.00 | 70 | 1003.5 |
| 20260902174957 | 61 | 132 | 7.0 | 9.0 | 0.00 | 0.00 | 0.00 | 69 | 1003.6 |
| 20260902174635 | 0 | 0.0 | 0.0 | 0.00 | 0.00 | 0.00 | |||
| 20260902174458 | 61 | 118 | 8.0 | 10.0 | 0.00 | 0.00 | 0.00 | 70 | 1003.6 |
| 20260902174132 | 0 | 0.0 | 0.0 | 0.00 | 0.00 | 0.00 | |||
| 20260902173957 | 61 | 129 | 7.0 | 9.0 | 0.00 | 0.00 | 0.00 | 69 | 1003.6 |
| 20260902173632 | 0 | 0.0 | 0.0 | 0.00 | 0.00 | 0.00 | |||
| 20260902173458 | 61 | 127 | 7.0 | 13.0 | 0.00 | 0.00 | 0.00 | 70 | 1003.5 |
| 20260902172957 | 61 | 120 | 7.0 | 9.0 | 0.00 | 0.00 | 0.00 | 71 | 1003.5 |
| 20260902172633 | 0 | 0.0 | 0.0 | 0.00 | 0.00 | 0.00 | |||
| 20260902172458 | 61 | 121 | 7.0 | 8.0 | 0.00 | 0.00 | 0.00 | 71 | 1003.6 |
| 20260902172132 | 0 | 0.0 | 0.0 | 0.00 | 0.00 | 0.00 | |||
| 20260902171957 | 61 | 115 | 8.0 | 11.0 | 0.00 | 0.00 | 0.00 | 72 | 1003.5 |
| 20260902171633 | 0 | 0.0 | 0.0 | 0.00 | 0.00 | 0.00 | |||
| 20260902171459 | 60 | 133 | 7.0 | 11.0 | 0.00 | 0.00 | 0.00 | 73 | 1003.6 |
| 20260902171138 | 0 | 0.0 | 0.0 | 0.00 | 0.00 | 0.00 | |||
| 20260902170957 | 60 | 132 | 5.0 | 7.0 | 0.00 | 0.00 | 0.00 | 75 | 1003.7 |
| 20260902170633 | 0 | 0.0 | 0.0 | 0.00 | 0.00 | 0.00 | |||
| 20260902170459 | 59 | 121 | 7.0 | 9.0 | 0.00 | 0.00 | 0.00 | 76 | 1003.8 |
| 20260902170133 | 0 | 0.0 | 0.0 | 0.00 | 0.00 | 0.00 | |||
| 20260902165959 | 59 | 127 | 7.0 | 11.0 | 0.00 | 0.00 | 0.00 | 76 | 1003.8 |